DECAYED

COSMOS 1408 DEB, 49527 (Decayed)

Orbit data source: Space-Track

COSMOS 1408 DEB, 49527 was space debris in LEO originally from a launch on Thu, 16 Sep 1982 UTC launched from the Plesetsk Missile And Space Complex (PKMTR). Cosmos 1408 debris is a result of deliberate destruction of the defunct Soviet-era reconnaissance satellite Cosmos 1408 by a Russian anti-satellite missile in 2021. This event added many debris pieces to Earth's orbit, complicating space navigation and increasing collision risks for operational satellites and the International Space Station. The Cosmos 1408 debris has heightened concerns about space safety and militarization, emphasizing the urgent need for comprehensive space debris management strategies.

Not visible in the next 10 days
Identifier
49527, 1982-092Q
Orbit
Decayed
Country
Flag of CISCIS
Related business
Manufacturer
Yuzhnoe
Mission
Decayed spacecraft
Bus & Motor
Unknown
Mass
Unknown
Launch date (UTC)
1982-09-16 (44 years ago)
Launch vehicle
Unknown
Launch site
Plesetsk Missile And Space Complex (PKMTR)
Object type
Payload
Rocket body
Debris
Shape & HBR
Unknown shape, 0.1 m
Radar Cross Section
Medium (>0.1 m² and <1 m²)

Expand to show TLE details & history
Last TLE update: 1 year ago

TLE from 1 year ago
0 COSMOS 1408 DEB
1 49527U 82092Q   25142.57236682  .15816416 -11726-5  34046-2 0  9995
2 49527  82.3091  39.5091 0007329 259.2989 100.7480 16.30668164185908
Epoch: 2025-05-22T13:44Z
TLE epoch observation values (Epoch: 2025-05-22T13:44:12.493Z)
Latitude
0.00004°
Longitude
-46.98295°
Altitude
194.876 km
Speed
7.789 km/s
True Right ascension
02h 38m 02s
True Declination
0° 00' 00"
Sunlit
Object was in daylight at epoch
Visualization orbit readout
Latitude
Unknown
Longitude
Unknown
Altitude
Unknown
Speed
Unknown
Apparent Right ascension
Unknown
Apparent Declination
Unknown
Sunlit
N/A
Visualization observer readout
Local Sidereal Time
21:28:07
Azimuth
Unknown
Elevation
Unknown
Doppler factor
Unknown
Orbital elements
Apogee altitude
192.39 km
Perigee altitude
182.766 km
Semi-major axis
6,565.715 km
Eccentricity
0.00073
Inclination
82.3091°
RAAN
39.5091°
Arg. of periapsis
259.2989°
True anomaly
100.8305°
Mean anomaly
100.748°
Eccentric anomaly
100.78925°
Mean motion
4.07962 °/min
Orbital period
88.24 mins
BSTAR
0.0034046

Documentation

Showing up to 5 results
|